EZY221 GMAD-GCRR

Flight info

Callsign EZY221
Flight time 0h 54m
Altitude 33000
Route BULOK UG850 DEVLA
Aircraft A35K/H-SDE2E3GHIJ3J4J5LM1ORWXY/LB1D1

Departure

Time 2026-04-23 20:29
Airport Al Massira Airport (GMAD)

Arrival

Time 2026-04-23 21:23
Airport César Manrique-Lanzarote Airport (GCRR)
Time Latitude Longitude Altitude Speed Heading
2026-04-23 20:13 30.32906 -9.41023 241 ft 0 kts 321°
2026-04-23 20:21 30.32894 -9.41011 242 ft 4 kts 321°
2026-04-23 20:22 30.32873 -9.40992 236 ft 4 kts 323°
2026-04-23 20:22 30.32857 -9.40983 237 ft 4 kts
2026-04-23 20:22 30.32838 -9.40987 236 ft 3 kts 11°
2026-04-23 20:22 30.32813 -9.40996 236 ft 4 kts 27°
2026-04-23 20:23 30.32800 -9.41004 236 ft 1 kts 28°
2026-04-23 20:23 30.32799 -9.41005 236 ft 0 kts 28°
2026-04-23 20:24 30.32801 -9.41000 236 ft 3 kts 55°
2026-04-23 20:24 30.32806 -9.40905 238 ft 20 kts 92°
2026-04-23 20:25 30.32804 -9.40737 241 ft 16 kts 90°
2026-04-23 20:25 30.32726 -9.40671 242 ft 16 kts 180°
2026-04-23 20:25 30.32614 -9.40672 242 ft 17 kts 181°
2026-04-23 20:25 30.32495 -9.40676 242 ft 17 kts 175°
2026-04-23 20:26 30.32435 -9.40575 243 ft 17 kts 94°
2026-04-23 20:26 30.32435 -9.40444 245 ft 17 kts 93°
2026-04-23 20:26 30.32430 -9.40288 248 ft 21 kts 78°
2026-04-23 20:26 30.32425 -9.40125 251 ft 20 kts 86°
2026-04-23 20:27 30.32420 -9.39969 253 ft 19 kts 93°
2026-04-23 20:27 30.32418 -9.39823 256 ft 17 kts 92°
2026-04-23 20:27 30.32411 -9.39690 258 ft 16 kts 91°
2026-04-23 20:27 30.32409 -9.39570 260 ft 13 kts 94°
2026-04-23 20:28 30.32349 -9.39513 261 ft 12 kts 177°
2026-04-23 20:28 30.32264 -9.39521 263 ft 12 kts 197°
2026-04-23 20:28 30.32225 -9.39606 262 ft 15 kts 270°
2026-04-23 20:28 30.32230 -9.39890 255 ft 71 kts 271°
2026-04-23 20:29 30.32248 -9.40732 240 ft 135 kts 271°
2026-04-23 20:29 30.32288 -9.41980 447 ft 162 kts 267°
2026-04-23 20:29 30.32327 -9.43274 1115 ft 160 kts 267°
2026-04-23 20:29 30.32364 -9.44535 1889 ft 154 kts 268°
2026-04-23 20:30 30.32397 -9.45760 2630 ft 150 kts 268°
2026-04-23 20:30 30.32444 -9.48141 3830 ft 146 kts 274°
2026-04-23 20:30 30.32468 -9.48894 4256 ft 137 kts 272°
2026-04-23 20:31 30.32392 -9.49968 4783 ft 140 kts 262°
2026-04-23 20:31 30.32041 -9.51388 5764 ft 140 kts 255°
2026-04-23 20:31 30.31451 -9.52548 5900 ft 189 kts 224°
2026-04-23 20:31 30.30321 -9.53410 6776 ft 201 kts 206°
2026-04-23 20:32 30.29453 -9.53933 7285 ft 216 kts 216°
2026-04-23 20:32 30.28224 -9.55081 7948 ft 238 kts 224°
2026-04-23 20:32 30.26972 -9.56479 8315 ft 262 kts 226°
2026-04-23 20:32 30.25725 -9.58088 8927 ft 274 kts 236°
2026-04-23 20:33 30.24820 -9.60024 9684 ft 279 kts 248°
2026-04-23 20:33 30.24211 -9.62206 10409 ft 289 kts 253°
2026-04-23 20:33 30.23586 -9.64511 10676 ft 312 kts 252°
2026-04-23 20:33 30.22893 -9.66959 11161 ft 325 kts 251°
2026-04-23 20:34 30.22171 -9.69467 11885 ft 331 kts 252°
2026-04-23 20:34 30.21443 -9.72000 12668 ft 333 kts 252°
2026-04-23 20:34 30.20720 -9.74525 13466 ft 335 kts 252°
2026-04-23 20:34 30.19987 -9.77095 14236 ft 337 kts 252°
2026-04-23 20:35 30.19253 -9.79679 14943 ft 338 kts 252°
2026-04-23 20:35 30.18520 -9.82272 15646 ft 340 kts 252°
2026-04-23 20:35 30.17780 -9.84882 16373 ft 341 kts 251°
2026-04-23 20:35 30.17029 -9.87452 17072 ft 343 kts 251°
2026-04-23 20:36 30.16248 -9.90064 17754 ft 345 kts 251°
2026-04-23 20:36 30.15456 -9.92688 18432 ft 347 kts 250°
2026-04-23 20:36 30.14657 -9.95328 19014 ft 349 kts 251°
2026-04-23 20:36 30.13852 -9.97988 19592 ft 351 kts 251°
2026-04-23 20:37 30.13046 -10.00667 20184 ft 354 kts 251°
2026-04-23 20:37 30.12235 -10.03364 20759 ft 357 kts 251°
2026-04-23 20:37 30.11420 -10.06079 21332 ft 359 kts 252°
2026-04-23 20:37 30.10597 -10.08816 21901 ft 362 kts 252°
2026-04-23 20:38 30.09768 -10.11569 22460 ft 364 kts 252°
2026-04-23 20:38 30.08930 -10.14346 23002 ft 367 kts 252°
2026-04-23 20:38 30.08086 -10.17138 23525 ft 370 kts 252°
2026-04-23 20:38 30.07234 -10.19949 23977 ft 372 kts 252°
2026-04-23 20:39 30.06367 -10.22766 24456 ft 373 kts 253°
2026-04-23 20:39 30.05484 -10.25579 24929 ft 373 kts 252°
2026-04-23 20:39 30.04589 -10.28403 25371 ft 374 kts 252°
2026-04-23 20:39 30.03692 -10.31228 25794 ft 375 kts 252°
2026-04-23 20:40 30.02792 -10.34054 26213 ft 376 kts 253°
2026-04-23 20:40 30.01889 -10.36891 26623 ft 377 kts 253°
2026-04-23 20:40 30.00984 -10.39741 27025 ft 378 kts 253°
2026-04-23 20:40 30.00077 -10.42599 27428 ft 380 kts 253°
2026-04-23 20:41 29.99169 -10.45464 27807 ft 381 kts 253°
2026-04-23 20:41 29.98254 -10.48344 28191 ft 382 kts 253°
2026-04-23 20:41 29.97336 -10.51225 28521 ft 384 kts 253°
2026-04-23 20:41 29.96409 -10.54127 28840 ft 386 kts 253°
2026-04-23 20:42 29.95481 -10.57043 29170 ft 388 kts 253°
2026-04-23 20:42 29.94547 -10.59973 29497 ft 390 kts 253°
2026-04-23 20:42 29.93608 -10.62913 29800 ft 392 kts 253°
2026-04-23 20:42 29.92676 -10.65829 30101 ft 393 kts 253°
2026-04-23 20:43 29.91730 -10.68789 30361 ft 395 kts 253°
2026-04-23 20:43 29.90778 -10.71770 30606 ft 396 kts 253°
2026-04-23 20:43 29.89821 -10.74756 30843 ft 398 kts 253°
2026-04-23 20:43 29.88862 -10.77749 31057 ft 399 kts 253°
2026-04-23 20:44 29.87899 -10.80753 31347 ft 399 kts 253°
2026-04-23 20:44 29.86937 -10.83749 31656 ft 398 kts 253°
2026-04-23 20:44 29.85980 -10.86726 31970 ft 397 kts 253°
2026-04-23 20:44 29.85018 -10.89709 32286 ft 396 kts 253°
2026-04-23 20:45 29.84058 -10.92683 32604 ft 395 kts 253°
2026-04-23 20:45 29.83104 -10.95647 32904 ft 394 kts 253°
2026-04-23 20:45 29.82151 -10.98609 33208 ft 394 kts 253°
2026-04-23 20:45 29.81198 -11.01565 33513 ft 393 kts 253°
2026-04-23 20:46 29.80246 -11.04516 33824 ft 392 kts 253°
2026-04-23 20:46 29.79296 -11.07456 34127 ft 392 kts 253°
2026-04-23 20:46 29.78342 -11.10399 34399 ft 391 kts 253°
2026-04-23 20:46 29.77393 -11.13326 34665 ft 390 kts 253°
2026-04-23 20:47 29.76446 -11.16250 34931 ft 389 kts 253°
2026-04-23 20:47 29.75501 -11.19168 35069 ft 389 kts 253°
2026-04-23 20:47 29.73604 -11.24995 35100 ft 388 kts 253°
2026-04-23 20:48 29.71707 -11.30813 35105 ft 388 kts 253°
2026-04-23 20:48 29.69824 -11.36590 35103 ft 388 kts 253°
2026-04-23 20:49 29.67926 -11.42395 35101 ft 388 kts 253°
2026-04-23 20:49 29.66022 -11.48207 35101 ft 388 kts 253°
2026-04-23 20:50 29.64120 -11.54012 35104 ft 388 kts 253°
2026-04-23 20:50 29.62218 -11.59811 35104 ft 388 kts 253°
2026-04-23 20:51 29.60310 -11.65614 35106 ft 388 kts 253°
2026-04-23 20:51 29.58400 -11.71413 35108 ft 389 kts 252°
2026-04-23 20:52 29.56480 -11.77232 35108 ft 390 kts 252°
2026-04-23 20:52 29.54556 -11.83053 35111 ft 390 kts 252°
2026-04-23 20:53 29.52631 -11.88872 35104 ft 390 kts 252°
2026-04-23 20:53 29.50705 -11.94681 35108 ft 389 kts 252°
2026-04-23 20:54 29.48782 -12.00494 35108 ft 390 kts 252°
2026-04-23 20:54 29.46840 -12.06306 35062 ft 388 kts 252°
2026-04-23 20:55 29.45870 -12.09201 34146 ft 391 kts 252°
2026-04-23 20:55 29.44890 -12.12138 32378 ft 399 kts 252°
2026-04-23 20:55 29.43898 -12.15115 30936 ft 400 kts 252°
2026-04-23 20:55 29.42906 -12.18084 29844 ft 393 kts 252°
2026-04-23 20:56 29.41940 -12.20953 29541 ft 379 kts 252°
2026-04-23 20:56 29.41002 -12.23745 29049 ft 372 kts 253°
2026-04-23 20:56 29.40083 -12.26493 28547 ft 366 kts 253°
2026-04-23 20:56 29.39181 -12.29199 28051 ft 361 kts 253°
2026-04-23 20:57 29.38288 -12.31865 27579 ft 356 kts 253°
2026-04-23 20:57 29.37405 -12.34494 27097 ft 351 kts 253°
2026-04-23 20:57 29.36533 -12.37090 26639 ft 347 kts 253°
2026-04-23 20:57 29.35669 -12.39660 26188 ft 343 kts 253°
2026-04-23 20:58 29.34817 -12.42197 25732 ft 340 kts 253°
2026-04-23 20:58 29.33973 -12.44710 25298 ft 336 kts 253°
2026-04-23 20:58 29.33132 -12.47205 24876 ft 333 kts 253°
2026-04-23 20:58 29.32303 -12.49668 24461 ft 330 kts 253°
2026-04-23 20:59 29.31490 -12.52072 24068 ft 326 kts 253°
2026-04-23 20:59 29.30672 -12.54482 23667 ft 323 kts 253°
2026-04-23 20:59 29.29864 -12.56866 23233 ft 319 kts 253°
2026-04-23 20:59 29.29064 -12.59230 22854 ft 317 kts 253°
2026-04-23 21:00 29.28270 -12.61581 22478 ft 316 kts 253°
2026-04-23 21:00 29.27479 -12.63920 22099 ft 315 kts 253°
2026-04-23 21:00 29.26690 -12.66254 21727 ft 313 kts 252°
2026-04-23 21:00 29.25903 -12.68578 21313 ft 312 kts 252°
2026-04-23 21:01 29.25119 -12.70894 20884 ft 311 kts 252°
2026-04-23 21:01 29.24223 -12.73153 20461 ft 312 kts 246°
2026-04-23 21:01 29.23240 -12.75362 20028 ft 311 kts 246°
2026-04-23 21:01 29.22255 -12.77570 19584 ft 310 kts 246°
2026-04-23 21:02 29.21275 -12.79766 19144 ft 310 kts 245°
2026-04-23 21:02 29.20296 -12.81962 18704 ft 310 kts 245°
2026-04-23 21:02 29.19316 -12.84161 18253 ft 310 kts 245°
2026-04-23 21:02 29.18338 -12.86356 17786 ft 309 kts 245°
2026-04-23 21:03 29.17365 -12.88544 17354 ft 308 kts 245°
2026-04-23 21:03 29.16396 -12.90722 16924 ft 307 kts 245°
2026-04-23 21:03 29.15430 -12.92890 16496 ft 306 kts 245°
2026-04-23 21:03 29.14466 -12.95051 16078 ft 305 kts 245°
2026-04-23 21:04 29.13499 -12.97210 15657 ft 304 kts 245°
2026-04-23 21:04 29.12536 -12.99361 15239 ft 304 kts 245°
2026-04-23 21:04 29.11570 -13.01520 14822 ft 304 kts 245°
2026-04-23 21:04 29.10608 -13.03670 14399 ft 304 kts 244°
2026-04-23 21:05 29.09643 -13.05823 13985 ft 304 kts 244°
2026-04-23 21:05 29.08678 -13.07971 13539 ft 303 kts 244°
2026-04-23 21:05 29.07718 -13.10111 13103 ft 302 kts 244°
2026-04-23 21:05 29.06763 -13.12242 12670 ft 301 kts 244°
2026-04-23 21:06 29.05811 -13.14366 12242 ft 300 kts 245°
2026-04-23 21:06 29.04869 -13.16460 11822 ft 299 kts 245°
2026-04-23 21:06 29.03920 -13.18569 11383 ft 298 kts 245°
2026-04-23 21:06 29.02972 -13.20679 10951 ft 298 kts 245°
2026-04-23 21:07 29.02026 -13.22787 10521 ft 298 kts 245°
2026-04-23 21:07 29.01094 -13.24852 10376 ft 287 kts 245°
2026-04-23 21:07 29.00189 -13.26858 10192 ft 280 kts 245°
2026-04-23 21:07 28.99296 -13.28838 10134 ft 280 kts 244°
2026-04-23 21:08 28.98140 -13.30641 10012 ft 285 kts 229°
2026-04-23 21:08 28.96517 -13.32010 9410 ft 296 kts 209°
2026-04-23 21:08 28.94592 -13.32814 9141 ft 291 kts 201°
2026-04-23 21:08 28.92740 -13.33501 8984 ft 270 kts 201°
2026-04-23 21:09 28.90928 -13.33917 8528 ft 265 kts 185°
2026-04-23 21:09 28.89096 -13.33704 8056 ft 263 kts 165°
2026-04-23 21:09 28.87429 -13.32907 8000 ft 264 kts 155°
2026-04-23 21:09 28.85767 -13.31970 7912 ft 268 kts 155°
2026-04-23 21:10 28.84089 -13.31030 7787 ft 268 kts 155°
2026-04-23 21:10 28.82416 -13.30094 7670 ft 268 kts 155°
2026-04-23 21:10 28.80733 -13.29154 7547 ft 268 kts 155°
2026-04-23 21:10 28.79625 -13.28537 7466 ft 267 kts 156°
2026-04-23 21:11 28.77873 -13.27912 7345 ft 263 kts 173°
2026-04-23 21:11 28.76060 -13.27843 7227 ft 260 kts 186°
2026-04-23 21:11 28.74245 -13.27947 7106 ft 262 kts 186°
2026-04-23 21:11 28.72419 -13.28047 6987 ft 262 kts 185°
2026-04-23 21:12 28.70604 -13.28143 6870 ft 260 kts 185°
2026-04-23 21:12 28.68833 -13.28470 6743 ft 256 kts 205°
2026-04-23 21:12 28.67011 -13.30042 6592 ft 246 kts 239°
2026-04-23 21:12 28.66466 -13.31184 6506 ft 242 kts 255°
2026-04-23 21:13 28.66219 -13.33037 6383 ft 235 kts 278°
2026-04-23 21:13 28.66580 -13.34822 6264 ft 231 kts 291°
2026-04-23 21:13 28.67055 -13.36540 6126 ft 231 kts 290°
2026-04-23 21:13 28.67533 -13.38285 6006 ft 231 kts 290°
2026-04-23 21:14 28.68011 -13.40032 5883 ft 230 kts 290°
2026-04-23 21:14 28.68482 -13.41767 5755 ft 229 kts 289°
2026-04-23 21:14 28.68950 -13.43493 5631 ft 227 kts 290°
2026-04-23 21:14 28.69414 -13.45205 5506 ft 226 kts 290°
2026-04-23 21:15 28.69875 -13.46907 5385 ft 224 kts 290°
2026-04-23 21:15 28.70334 -13.48601 5258 ft 223 kts 290°
2026-04-23 21:15 28.70791 -13.50291 5133 ft 223 kts 290°
2026-04-23 21:15 28.71247 -13.51986 5012 ft 224 kts 290°
2026-04-23 21:16 28.71700 -13.53678 4890 ft 223 kts 290°
2026-04-23 21:16 28.72156 -13.55369 4794 ft 224 kts 290°
2026-04-23 21:16 28.72618 -13.57072 4635 ft 226 kts 289°
2026-04-23 21:16 28.73082 -13.58789 4443 ft 227 kts 289°
2026-04-23 21:17 28.73542 -13.60503 4245 ft 225 kts 290°
2026-04-23 21:17 28.73996 -13.62202 3916 ft 224 kts 289°
2026-04-23 21:17 28.74451 -13.63905 3570 ft 224 kts 290°
2026-04-23 21:17 28.74899 -13.65579 3392 ft 216 kts 292°
2026-04-23 21:18 28.75583 -13.67035 3252 ft 203 kts 311°
2026-04-23 21:18 28.76592 -13.68088 3132 ft 192 kts 328°
2026-04-23 21:18 28.77711 -13.68852 2986 ft 184 kts 339°
2026-04-23 21:18 28.78974 -13.69144 2483 ft 191 kts
2026-04-23 21:19 28.80213 -13.68775 2314 ft 177 kts 21°
2026-04-23 21:19 28.81263 -13.68197 2289 ft 159 kts 23°
2026-04-23 21:19 28.82196 -13.67666 2284 ft 142 kts 23°
2026-04-23 21:19 28.83057 -13.67171 2234 ft 136 kts 23°
2026-04-23 21:20 28.83886 -13.66694 2149 ft 133 kts 24°
2026-04-23 21:20 28.84707 -13.66221 1971 ft 132 kts 24°
2026-04-23 21:20 28.85533 -13.65744 1811 ft 136 kts 24°
2026-04-23 21:20 28.86373 -13.65258 1637 ft 137 kts 22°
2026-04-23 21:21 28.87235 -13.64759 1440 ft 137 kts 23°
2026-04-23 21:21 28.88081 -13.64270 1253 ft 139 kts 24°
2026-04-23 21:21 28.88937 -13.63774 1078 ft 137 kts 23°
2026-04-23 21:21 28.89791 -13.63280 899 ft 137 kts 24°
2026-04-23 21:22 28.90644 -13.62787 687 ft 138 kts 25°
2026-04-23 21:22 28.91495 -13.62281 544 ft 139 kts 24°
2026-04-23 21:22 28.92354 -13.61799 361 ft 137 kts 24°
2026-04-23 21:22 28.93200 -13.61297 203 ft 137 kts 21°
2026-04-23 21:23 28.94048 -13.60807 63 ft 133 kts 21°
2026-04-23 21:23 28.94761 -13.60404 58 ft 80 kts 27°
2026-04-23 21:23 28.95053 -13.60234 60 ft 42 kts 25°
2026-04-23 21:23 28.95237 -13.60208 57 ft 18 kts 343°
2026-04-23 21:24 28.95317 -13.60258 60 ft 13 kts 271°
2026-04-23 21:24 28.95254 -13.60320 60 ft 12 kts 207°
2026-04-23 21:24 28.95185 -13.60359 60 ft 11 kts 206°
2026-04-23 21:24 28.95123 -13.60397 56 ft 9 kts 219°
2026-04-23 21:25 28.95117 -13.60460 60 ft 8 kts 295°
2026-04-23 21:25 28.95138 -13.60516 58 ft 8 kts 272°
2026-04-23 21:25 28.95105 -13.60561 58 ft 7 kts 218°
2026-04-23 21:25 28.95064 -13.60597 63 ft 7 kts 217°
2026-04-23 21:26 28.95027 -13.60628 58 ft 6 kts 225°
2026-04-23 21:26 28.95029 -13.60668 58 ft 5 kts 292°
2026-04-23 21:26 28.95045 -13.60706 61 ft 6 kts 298°
2026-04-23 21:26 28.95051 -13.60719 59 ft 0 kts 296°
2026-04-23 21:27 28.95051 -13.60720 59 ft 0 kts 296°
2026-04-23 21:28 28.95055 -13.60728 61 ft 0 kts 297°